Home   Weather   Blackpool   Past weeks

Flag for United Kingdom Past Weather in Blackpool, England, United Kingdom — Yesterday and Last 2 Weeks

Now
46 °F

Passing clouds.


Feels Like: 40 °F
Forecast: 42 / 51 °F
Wind: 15 mph from East

Location: Blackpool Airport

Current Time: Mar 23, 2017 at 10:29:40 am

Latest Report: Mar 23, 2017 at 9:50 am


Visibility: N/A

Pressure: 30.12 "Hg

Humidity: 82%

Dew Point: 41 °F

Location of BlackpoolLocation

Past Weather in Blackpool — Graph

°F

Blackpool Temperature Yesterday

Maximum temperature yesterday: 45 °F (at 2:50 pm)
Minimum temperature yesterday: 41 °F (at 7:50 am)
Average temperature yesterday: 43 °F

High & Low Weather Summary for the Past Weeks

 TemperatureHumidityPressure
High55 °F (Mar 15, 1:50 pm)100% (Mar 8, 10:20 am)30.51 "Hg (Mar 8, 10:20 am)
Low37 °F (Mar 23, 6:20 am)59% (Mar 15, 1:50 pm)29.45 "Hg (Mar 20, 8:20 am)
Average48 °F89%29.96 "Hg
* Reported Mar 8 9:20 am — Mar 23 9:20 am, Blackpool, Weather by CustomWeather, © 2017

Note: Actual official high and low records may vary slightly from our data, if they occured in-between our weather recording intervals... More about our weather records

Advertising

Blackpool Weather History for the Previous 24 Hours

Scroll right to see more
 ConditionsComfort  
Time TempWeatherWind HumidityBarometerVisibility
9:20 am
Thu, Mar 23
46 °FScattered clouds.13 mph87%30.12 "HgN/A
8:50 am45 °FScattered clouds.12 mph93%30.09 "HgN/A
8:20 am37 °FScattered showers. Scattered clouds.6 mph93%30.04 "Hg6 mi
7:50 am37 °FPassing clouds.6 mph93%30.04 "Hg5 mi
6:50 am37 °FPassing clouds.6 mph93%30.04 "HgN/A
6:20 am37 °FPassing clouds.6 mph93%30.04 "HgN/A
8:50 pm
Wed, Mar 22
41 °FPassing clouds.8 mph93%29.80 "HgN/A
7:50 pm41 °FLight rain. Passing clouds.7 mph93%29.77 "HgN/A
7:20 pm41 °FLight rain. Passing clouds.8 mph100%29.74 "HgN/A
6:50 pm41 °FLight rain. Passing clouds.10 mph93%29.74 "HgN/A
6:20 pm43 °FBroken clouds.10 mph93%29.71 "Hg5 mi
5:50 pm43 °FRain. Partly sunny.9 mph93%29.71 "Hg5 mi
5:20 pm43 °FSprinkles. Broken clouds.9 mph93%29.68 "HgN/A
4:50 pm43 °FSprinkles. Partly sunny.10 mph93%29.68 "HgN/A
4:20 pm45 °FSprinkles. Scattered clouds.9 mph93%29.65 "HgN/A
3:50 pm45 °FScattered showers. Partly sunny.12 mph93%29.65 "HgN/A
3:20 pm45 °FLight rain. Broken clouds.13 mph93%29.62 "Hg5 mi
2:50 pm45 °FBroken clouds.15 mph93%29.62 "HgN/A
2:20 pm43 °FPartly sunny.14 mph93%29.62 "HgN/A
1:50 pm43 °FPartly sunny.15 mph93%29.62 "HgN/A
1:20 pm43 °FBroken clouds.13 mph93%29.62 "HgN/A
12:50 pm43 °FLight rain. Broken clouds.15 mph93%29.62 "Hg6 mi
12:20 pm43 °FLight rain. Partly sunny.14 mph93%29.62 "Hg6 mi
11:50 am43 °FLight rain. Broken clouds.15 mph93%29.62 "Hg6 mi
11:20 am41 °FLight rain. Broken clouds.14 mph93%29.62 "Hg6 mi
10:50 am43 °FLight rain. Broken clouds.20 mph87%29.62 "Hg6 mi
10:20 am43 °FLight rain. Broken clouds.15 mph93%29.59 "Hg6 mi
Weather by CustomWeather, © 2017

See weather overviewHow to use our weather pages